Date String (YYYY-MM-DD hh:mm:ss) UTC,Instrument flags,absolute air pressure of the measurement (hPa),sample flow rate (lpm),inlet stack bypass flow (lpm),air temperature of the measurement (°C),ambient temperature measured by the external sensor (°C),aerosol sample conditioner tube jacket temperature (°C),OPC LED temperature (°C),internal box temperature (°C),relative humidity of the measurement (%),span deviation,mass concentration of particles derived from Lorenz-Mie calculation of OPC scattering (μg/m³),mass concentration of particles derived from Lorenz-Mie calculation of OPC scattering (μg/m³),mass concentration of particles derived from Lorenz-Mie calculation of OPC scattering (μg/m³)
DateTimeUTC,F1_M11,P_M11,Q1_M11,Q2_M11,T1_M11,T2_M11,T3_M11,T4_M11,T5_M11,U1_M11,ZSPAN_M11,X2_M11,X0_M11,X1_M11
2023-07-08 20:00:00,SystemResetWarning,0830.1,5.01,000.00,029.9,025.5,000.0,038.2,030.4,35.0,-001.5,0007.42,0013.86,0006.69
2023-07-08 20:01:00,SystemResetWarning,0830.1,4.97,000.00,030.0,025.9,000.0,038.2,030.6,34.5,-001.3,0007.39,0013.82,0006.70
2023-07-08 20:02:00,SystemResetWarning,0830.1,4.99,000.00,030.1,026.4,000.0,038.2,030.7,34.6,-001.2,0007.35,0014.03,0006.72
2023-07-08 20:03:00,SystemResetWarning,0830.0,5.00,000.00,030.1,026.8,000.0,038.2,030.8,34.9,-001.4,0007.33,0014.53,0006.73
2023-07-08 20:04:00,SystemResetWarning,0830.0,5.02,000.00,030.2,027.1,000.0,038.3,030.9,33.8,-001.5,0007.32,0014.77,0006.73
2023-07-08 20:05:00,SystemResetWarning,0830.0,4.98,000.00,030.3,027.4,000.0,038.3,031.0,34.0,-001.2,0007.28,0014.02,0006.71
2023-07-08 20:06:00,SystemResetWarning,0830.0,5.02,000.00,030.4,027.6,000.0,038.3,031.0,33.6,-000.7,0007.25,0013.85,0006.69
2023-07-08 20:07:00,SystemResetWarning,0830.0,4.98,000.00,030.4,027.8,000.0,038.4,031.1,33.3,-000.6,0007.22,0013.78,0006.67
2023-07-08 20:08:00,SystemResetWarning,0830.0,4.99,000.00,030.4,027.9,000.0,038.4,031.1,33.1,-000.6,0007.18,0013.13,0006.64
2023-07-08 20:09:00,SystemResetWarning,0830.0,5.00,000.00,030.5,026.8,000.0,038.3,031.1,33.8,-000.7,0007.14,0012.43,0006.61
2023-07-08 20:10:00,SystemResetWarning,0830.0,5.00,000.00,030.4,025.2,000.0,038.2,030.8,34.1,-000.6,0007.15,0012.12,0006.60
2023-07-08 20:11:00,SystemResetWarning,0830.0,5.01,000.00,030.3,024.6,000.0,038.1,030.6,34.2,-000.6,0007.15,0012.15,0006.60
2023-07-08 20:12:00,SystemResetWarning,0830.0,5.02,000.00,030.1,024.8,000.0,038.2,030.3,34.2,-000.6,0007.18,0012.23,0006.60
2023-07-08 20:13:00,SystemResetWarning,0830.0,5.00,000.00,030.0,025.2,000.0,038.2,030.4,34.4,-001.2,0007.21,0012.26,0006.58
2023-07-08 20:14:00,SystemResetWarning,0830.0,4.99,000.00,030.0,025.7,000.0,038.2,030.5,34.6,-001.2,0007.17,0012.64,0006.55
2023-07-08 20:15:00,SystemResetWarning,0830.1,4.99,000.00,030.0,026.2,000.0,038.2,030.6,35.2,-000.9,0007.15,0013.28,0006.52
2023-07-08 20:16:00,SystemResetWarning,0830.1,5.01,000.00,030.1,026.6,000.0,038.2,030.7,34.4,-001.0,0007.17,0013.94,0006.52
2023-07-08 20:17:00,SystemResetWarning,0830.3,4.99,000.00,030.2,026.9,000.0,038.3,030.8,33.9,-000.9,0007.15,0014.44,0006.51
2023-07-08 20:18:00,SystemResetWarning,0830.3,5.01,000.00,030.3,027.2,000.0,038.3,030.9,34.2,-000.9,0007.12,0014.30,0006.52
2023-07-08 20:19:00,SystemResetWarning,0830.4,5.00,000.00,030.3,027.5,000.0,038.3,030.9,34.5,-000.8,0007.12,0014.12,0006.53
2023-07-08 20:20:00,SystemResetWarning,0830.4,5.00,000.00,030.4,027.7,000.0,038.3,031.0,34.3,-000.7,0007.16,0014.09,0006.56
2023-07-08 20:21:00,SystemResetWarning,0830.5,5.00,000.00,030.4,027.8,000.0,038.4,031.0,34.5,-000.9,0007.14,0014.05,0006.56
2023-07-08 20:22:00,SystemResetWarning,0830.6,5.00,000.00,030.4,028.0,000.0,038.4,031.1,34.8,-001.0,0007.14,0014.07,0006.56
2023-07-08 20:23:00,SystemResetWarning,0830.7,4.99,000.00,030.4,027.4,000.0,038.4,031.1,34.7,-000.8,0007.11,0013.97,0006.55
2023-07-08 20:24:00,SystemResetWarning,0830.7,4.99,000.00,030.4,026.0,000.0,038.3,030.9,34.5,-000.8,0007.08,0014.05,0006.54
2023-07-08 20:25:00,SystemResetWarning,0830.6,5.00,000.00,030.4,025.5,000.0,038.2,030.8,34.8,-000.5,0007.09,0013.55,0006.54
2023-07-08 20:26:00,SystemResetWarning,0830.5,5.00,000.00,030.2,025.6,000.0,038.3,030.6,35.2,-000.6,0007.08,0012.86,0006.56
2023-07-08 20:27:00,SystemResetWarning,0830.5,5.03,000.00,030.3,026.0,000.0,038.3,030.7,35.1,-000.7,0007.04,0011.48,0006.56
2023-07-08 20:28:00,SystemResetWarning,0830.5,4.96,000.00,030.5,026.4,000.0,038.3,030.8,34.4,-000.5,0007.03,0011.74,0006.56
2023-07-08 20:29:00,SystemResetWarning,0830.3,5.01,000.00,030.6,026.7,000.0,038.3,030.9,33.2,-000.6,0007.05,0011.58,0006.57
2023-07-08 20:30:00,SystemResetWarning,0830.2,5.01,000.00,030.7,027.0,000.0,038.4,031.0,33.5,-000.7,0007.05,0011.61,0006.56
2023-07-08 20:31:00,SystemResetWarning,0830.2,4.98,000.00,030.7,027.3,000.0,038.4,031.0,33.4,-000.9,0007.08,0011.67,0006.56
2023-07-08 20:32:00,SystemResetWarning,0830.1,5.00,000.00,030.7,027.6,000.0,038.5,031.1,33.5,-000.7,0007.10,0011.71,0006.58
2023-07-08 20:33:00,SystemResetWarning,0830.0,5.01,000.00,030.7,027.8,000.0,038.6,031.2,33.9,-000.8,0007.09,0011.67,0006.57
2023-07-08 20:34:00,SystemResetWarning,0829.8,5.02,000.00,030.8,027.9,000.0,038.6,031.2,33.3,-000.8,0007.06,0011.54,0006.55
2023-07-08 20:35:00,SystemResetWarning,0829.7,4.97,000.00,030.8,027.0,000.0,038.6,031.2,33.7,-001.1,0007.06,0011.51,0006.56
2023-07-08 20:36:00,SystemResetWarning,0829.7,5.02,000.00,030.8,025.8,000.0,038.5,031.0,34.0,-001.1,0007.05,0011.04,0006.54
2023-07-08 20:37:00,SystemResetWarning,0829.7,5.01,000.00,030.7,025.5,000.0,038.5,030.8,34.6,-001.2,0007.04,0011.24,0006.51
2023-07-08 20:38:00,SystemResetWarning,0829.7,4.98,000.00,030.6,025.8,000.0,038.5,030.7,35.6,-001.3,0007.06,0011.42,0006.51
2023-07-08 20:39:00,SystemResetWarning,0829.8,5.02,000.00,030.7,026.1,000.0,038.6,030.9,36.3,-001.6,0007.11,0010.80,0006.53
2023-07-08 20:40:00,SystemResetWarning,0829.9,5.00,000.00,030.9,026.5,000.0,038.6,031.1,35.1,-001.7,0007.11,0010.71,0006.53
2023-07-08 20:41:00,SystemResetWarning,0829.8,4.97,000.00,031.2,026.9,000.0,038.6,031.2,35.3,-002.2,0007.12,0010.82,0006.53
2023-07-08 20:42:00,SystemResetWarning,0829.8,5.03,000.00,031.5,027.2,000.0,038.7,031.4,34.6,-002.6,0007.12,0011.34,0006.54
2023-07-08 20:43:00,SystemResetWarning,0829.9,4.98,000.00,031.7,027.5,000.0,038.8,031.4,32.9,-003.1,0007.14,0012.04,0006.53
2023-07-08 20:44:00,SystemResetWarning,0829.9,5.02,000.00,031.8,027.7,000.0,038.9,031.5,32.2,-003.0,0007.17,0012.48,0006.55
2023-07-08 20:45:00,SystemResetWarning,0829.7,4.98,000.00,031.9,027.8,000.0,039.0,031.5,32.2,-003.3,0007.19,0012.57,0006.55
2023-07-08 20:46:00,SystemResetWarning,0829.6,4.99,000.00,032.0,026.5,000.0,039.0,031.5,33.4,-002.9,0007.18,0012.51,0006.53
2023-07-08 20:47:00,SystemResetWarning,0829.4,5.00,000.00,032.0,025.2,000.0,038.9,031.3,33.9,-002.8,0007.15,0012.44,0006.51
2023-07-08 20:48:00,SystemResetWarning,0829.3,5.00,000.00,031.9,024.9,000.0,039.0,031.1,32.8,-002.3,0007.13,0012.21,0006.50
2023-07-08 20:49:00,SystemResetWarning,0829.4,5.01,000.00,031.7,025.1,000.0,039.1,030.8,32.3,-002.1,0007.11,0012.04,0006.48
2023-07-08 20:50:00,SystemResetWarning,0829.4,5.01,000.00,031.6,025.6,000.0,039.1,030.9,33.2,-002.0,0007.08,0012.48,0006.45
2023-07-08 20:51:00,SystemResetWarning,0829.3,4.99,000.00,031.5,026.0,000.0,039.2,030.9,33.4,-001.6,0007.10,0013.10,0006.43
2023-07-08 20:52:00,SystemResetWarning,0829.2,5.00,000.00,031.4,026.4,000.0,039.2,031.0,33.3,-000.8,0007.10,0013.06,0006.43
2023-07-08 20:53:00,SystemResetWarning,0829.1,5.01,000.00,031.4,026.8,000.0,039.3,031.1,31.8,0000.2,0007.04,0012.44,0006.40
2023-07-08 20:54:00,SystemResetWarning,0829.1,5.00,000.00,031.4,027.1,000.0,039.3,031.2,32.2,0000.9,0006.98,0011.76,0006.37
2023-07-08 20:55:00,SystemResetWarning,0829.1,5.00,000.00,031.3,027.4,000.0,039.3,031.2,32.7,0000.9,0006.96,0011.38,0006.37
2023-07-08 20:56:00,SystemResetWarning,0829.1,4.99,000.00,031.3,027.7,000.0,039.3,031.3,32.9,0001.6,0006.98,0011.40,0006.38
2023-07-08 20:57:00,SystemResetWarning,0829.2,5.01,000.00,031.3,027.9,000.0,039.3,031.4,32.0,0001.7,0007.00,0011.74,0006.41
2023-07-08 20:58:00,SystemResetWarning,0829.2,5.00,000.00,031.3,028.0,000.0,039.3,031.4,35.3,0001.6,0007.02,0012.09,0006.43
2023-07-08 20:59:00,SystemResetWarning,0829.3,5.01,000.00,031.4,027.2,000.0,039.2,031.5,34.9,0001.3,0007.05,0012.82,0006.46
